weather.gov     
National Weather Service

Terminal Aerodrome Forecast
NWS Homepage
This page is being discontinued on March 12, 2014.
The same data is available at this site. Please update your bookmarks.
Thank you, and we apologize for the inconvenience.
Please send an email to SR-SRH.Webmaster@noaa.gov with any concerns.


Current Version
Previous Version:    01  02  03  04  05  06  07  08  09  10  11  12  13  14  15  16  17  18  19  20  21  22  23  24  25  26  27  
[Printable]
383
FTUS43 KGRB 310500
TAFAUW
TAF
KAUW 310520Z 3106/0106 31015G25KT P6SM SCT025 BKN050
      TEMPO 3106/3108 3SM -SHSN BKN025
     FM310800 34017G28KT P6SM SCT020 BKN035
     FM312000 35012G20KT P6SM SCT040
     FM312300 34005KT P6SM SKC=


U.S. Dept. of Commerce
NOAA National Weather Service
1325 East West Highway
Silver Spring, MD 20910
E-mail: w-nws.webmaster@noaa.gov
Page last modified: May 16, 2007
NATIONAL WEATHER SERVICE: for Safety, for Work, for Fun - FOR LIFE